Location: Plzen
(49.7500°N, 13.3670°E)
Time: 00:17:05
(UTC+01:00)

ISS - Visible Passes

Search period start: 29 November 2023 00:00
Search period end: 09 December 2023 00:00
Orbit: 416 x 418 km, 51.6° (Epoch: 28 November)

Date Brightness Start Highest point End Pass type
(mag) Time Alt. Az. Time Alt. Az. Time Alt. Az.
29 Nov -3.8 18:17:41 10° WNW 18:21:00 84° SW 18:21:00 84° SW visible
30 Nov -3.8 17:29:20 10° WNW 17:32:42 78° NNE 17:34:46 22° E visible
30 Nov -1.1 19:06:14 10° W 19:07:41 21° W 19:07:41 21° W visible
01 Dec -3.0 18:17:45 10° WNW 18:21:00 47° SSW 18:21:32 42° S visible
02 Dec -3.5 17:29:18 10° WNW 17:32:38 66° SSW 17:35:29 13° ESE visible
02 Dec -0.9 19:06:48 10° W 19:08:25 15° SW 19:08:25 15° SW visible
03 Dec -1.5 18:17:53 10° W 18:20:37 23° SW 18:22:31 15° S visible
04 Dec -2.1 17:29:11 10° W 17:32:15 34° SSW 17:35:19 10° SE visible
05 Dec -2.7 16:40:32 10° WNW 16:43:48 49° SSW 16:47:03 10° SE visible
05 Dec -0.5 18:19:00 10° WSW 18:19:54 11° SW 18:20:47 10° SSW visible
06 Dec -0.7 17:29:18 10° W 17:31:32 17° SW 17:33:45 10° S visible
07 Dec -1.1 16:40:16 10° W 16:43:04 25° SW 16:45:52 10° SSE visible
